Wind_Speed
78 78 77 76 77 77 77 78 79 79 80 82 80 77 78 80 82 84 84 86 87 89 84 86 93 94 80 86 88 85 82 86 77 68 58 57 50 46 43 43 37 32 31
82 81 81 78 79 78 75 75 77 81 81 82 80 80 82 84 87 84 85 87 88 83 83 92 94 89 81 86 90 83 86 74 64 53 47 49 47 45 42 39 39 35 35
81 81 80 76 78 79 79 79 78 78 78 79 82 82 82 83 84 83 87 85 82 85 89 92 83 81 86 87 83 84 70 65 59 48 46 46 43 42 42 38 39 36 35
81 79 76 77 77 78 79 79 80 78 80 80 83 84 85 88 89 89 87 85 88 88 95 83 81 84 82 81 75 70 62 58 52 48 46 45 41 41 39 38 33 33 31
83 82 80 80 81 80 78 79 80 83 83 84 82 87 90 90 89 87 89 90 91 92 80 75 81 81 78 76 64 63 57 51 47 46 45 42 39 35 37 32 31 29 27
86 83 84 82 82 82 79 81 86 85 86 86 88 91 87 81 82 92 90 87 91 82 82 79 85 78 70 62 58 56 51 44 46 43 40 38 37 33 35 29 28 28 25
82 83 85 84 75 81 85 85 84 86 84 86 86 86 84 89 93 86 87 85 81 79 80 80 78 70 62 56 56 49 42 42 42 39 37 37 35 30 30 29 26 26 25
76 78 79 81 81 78 80 82 83 83 81 81 85 84 89 89 90 82 83 84 82 75 71 73 68 63 57 56 53 47 40 39 40 36 36 38 35 34 31 29 26 24 24
64 68 72 73 78 74 74 79 83 85 83 86 89 93 93 86 84 81 81 76 74 75 69 67 60 59 57 54 51 41 37 39 38 38 37 38 38 37 35 30 28 25 23
81 77 74 73 80 81 74 77 82 84 88 88 89 84 80 79 81 78 77 73 72 72 71 62 58 55 52 46 46 45 46 45 44 40 39 41 41 38 38 35 31 31 31
72 74 72 76 76 78 78 76 76 84 84 80 77 80 83 77 74 75 70 66 69 69 68 58 56 49 48 48 48 49 47 47 49 47 42 40 41 45 44 41 39 38 36
60 69 78 79 81 75 77 85 88 77 84 77 75 75 78 78 77 77 65 69 69 68 61 56 52 52 51 52 53 54 50 48 48 50 48 46 43 44 46 48 46 45 43
59 65 65 65 72 81 72 70 72 72 72 74 81 81 78 78 75 77 73 69 65 62 56 53 53 55 56 58 60 60 60 57 52 49 50 52 51 48 50 48 49 49 48
57 56 59 61 64 65 60 67 70 72 77 80 80 72 70 74 68 68 71 61 63 62 54 56 58 60 62 66 66 68 65 60 56 55 55 56 56 54 53 50 51 50 50
67 66 66 63 60 68 69 72 77 79 76 78 71 70 69 70 66 69 69 66 65 64 65 63 64 68 71 77 77 75 69 64 62 60 60 59 58 57 56 55 53 53 54
68 61 63 67 68 68 68 72 74 75 77 69 62 65 62 68 68 69 73 74 73 73 69 68 72 79 80 83 82 78 74 69 66 66 64 62 63 61 59 58 57 57 55
53 58 61 63 67 68 71 68 74 66 59 61 58 60 65 70 69 70 73 74 76 74 69 74 83 87 91 90 91 88 81 73 70 68 67 68 66 66 65 63 62 61 61
55 59 62 59 62 64 70 69 57 55 53 51 53 61 61 59 64 70 65 70 64 71 77 87 91 98 98 100 93 86 81 78 75 75 74 74 73 73 72 72 70 69 67
58 61 60 62 65 62 54 49 41 44 49 54 60 61 68 63 66 66 72 77 81 86 93 98 100 103 100 92 89 86 85 83 82 82 82 80 79 78 77 75 77 77 76
54 54 56 54 53 52 39 47 38 50 58 59 62 68 68 68 75 81 86 91 93 95 99 100 102 102 93 90 90 88 88 87 88 87 84 84 82 82 82 82 82 83 83
52 52 51 49 44 43 47 50 52 53 60 60 68 77 80 82 83 89 96 94 95 102 98 98 96 93 93 91 91 89 89 89 87 86 87 87 89 90 92 91 92 93 93
44 39 38 37 37 41 44 46 52 56 55 66 77 76 81 85 88 92 96 96 94 89 88 88 87 89 90 89 87 87 87 89 91 89 95 99 100 102 103 103 103 102 102
37 38 39 38 39 42 44 46 50 52 55 60 63 68 70 72 77 79 81 81 83 85 87 89 88 85 84 87 90 93 96 101 104 108 109 109 113 116 119 119 119 119 119
28 32 35 38 42 45 48 51 54 56 58 62 65 69 72 75 77 79 81 82 84 84 82 83 85 90 93 97 102 104 107 111 116 117 120 123 125 128 128 127 122 121 121
31 35 38 42 46 49 52 56 58 61 64 66 68 70 72 73 75 75 75 73 74 80 84 87 93 95 99 102 107 109 111 111 116 119 120 121 124 126 127 127 121 116 110
35 38 42 45 49 52 55 58 60 62 64 66 66 66 65 65 64 65 71 78 81 85 90 93 97 101 102 103 106 108 109 110 112 116 119 119 117 119 119 117 114 109 104
Wind_Direction
267 267 267 268 271 273 276 278 278 281 283 283 285 288 293 295 296 296 298 300 299 301 302 308 310 310 307 307 311 313 314 311 310 306 303 299 296 294 293 288 281 274 284
266 265 266 267 270 271 275 278 279 280 283 284 287 289 292 296 296 295 297 298 297 299 301 305 310 308 302 305 309 316 314 308 306 300 296 295 296 295 293 293 293 285 289
264 264 266 268 269 272 277 279 282 284 286 288 291 292 295 294 294 293 298 298 298 300 302 307 305 304 305 306 314 313 309 308 304 297 295 294 295 295 295 292 291 291 291
262 263 267 269 271 276 279 280 281 285 287 288 289 293 292 291 292 295 299 297 298 300 308 303 302 305 309 311 312 312 305 305 300 298 297 296 298 294 292 294 288 285 286
261 264 267 269 272 275 280 281 283 285 287 287 290 293 290 290 293 297 299 297 299 303 300 302 306 306 309 311 307 307 303 301 296 300 301 299 300 296 293 289 285 282 278
264 265 267 273 274 276 279 282 284 286 287 289 291 288 293 294 293 299 297 299 301 299 298 301 306 306 307 307 302 300 302 294 297 299 301 301 303 299 292 289 284 284 283
266 268 270 272 276 277 279 282 285 286 285 286 288 289 293 296 298 299 299 302 297 299 300 303 307 309 307 299 300 301 298 291 295 295 299 299 300 301 297 290 280 277 280
269 270 273 274 278 280 282 281 283 288 286 287 287 293 295 299 299 296 298 295 297 302 303 306 310 307 300 298 300 300 292 292 293 290 294 296 295 296 295 292 285 278 279
264 266 269 269 274 282 283 284 284 285 286 290 293 294 295 296 293 292 292 297 300 304 304 306 304 299 297 302 301 295 289 293 291 288 292 293 291 289 291 284 281 277 268
262 265 269 273 277 283 284 283 283 286 287 290 295 296 293 291 290 293 295 298 299 304 304 299 300 295 298 299 300 295 297 291 285 286 289 293 289 285 284 281 275 276 275
262 265 269 272 272 274 276 281 285 288 291 291 291 293 292 294 292 295 297 299 300 299 300 298 297 298 299 300 301 301 298 289 282 282 283 286 287 287 285 280 274 273 273
261 266 268 270 271 277 278 283 285 288 289 287 289 292 293 297 297 295 295 296 298 297 295 296 298 298 300 304 305 306 304 298 290 274 279 282 283 286 285 281 277 274 272
260 267 269 271 273 273 280 280 286 286 286 288 289 291 295 295 295 296 296 298 298 296 295 297 299 301 301 303 304 303 300 296 289 280 279 283 283 283 283 281 276 275 270
261 266 270 270 271 274 274 282 281 286 286 290 298 296 291 293 292 293 297 298 297 295 290 298 296 299 303 306 303 305 301 296 290 284 279 281 280 281 281 281 275 271 270
262 269 268 275 279 275 280 282 283 286 292 295 296 290 290 290 289 294 299 299 298 298 294 296 302 306 305 305 305 302 299 296 293 288 285 283 279 277 279 280 276 271 269
265 273 271 275 279 277 280 279 287 289 292 292 288 286 289 295 298 300 300 301 302 301 304 308 302 301 301 302 304 302 298 296 293 289 287 283 282 280 278 276 272 270 266
267 269 274 273 274 277 282 286 289 292 289 288 286 291 293 297 297 301 300 298 303 301 299 293 295 297 298 301 301 299 297 294 291 287 285 283 281 280 277 274 270 267 264
268 275 277 279 282 284 283 288 288 290 287 287 295 296 291 289 290 296 296 294 294 285 283 286 292 296 297 296 296 294 291 290 288 287 285 283 282 280 278 277 275 271 264
269 277 278 280 282 283 293 291 290 289 284 278 282 286 286 287 287 287 283 281 283 283 286 289 289 292 294 294 292 291 291 290 288 286 284 282 279 277 276 275 274 272 270
270 276 275 278 278 280 268 263 256 262 277 275 280 284 281 274 274 277 277 278 282 284 285 289 288 291 292 294 294 293 292 290 288 287 285 282 279 276 275 273 271 270 268
276 274 273 274 278 276 261 268 264 261 261 263 264 267 271 271 275 277 277 281 284 287 291 290 291 291 292 292 290 290 289 287 285 285 282 279 278 275 273 272 271 270 267
276 277 278 277 277 276 279 274 274 276 273 269 268 277 275 275 277 279 282 282 285 287 288 289 291 292 291 291 290 289 287 287 284 279 278 277 273 271 268 266 264 262 260
279 284 286 288 288 288 290 287 286 285 282 283 280 281 281 282 283 285 286 288 290 292 292 293 293 293 292 294 293 292 290 287 284 281 277 274 274 273 270 268 266 263 260
292 293 295 296 295 295 294 292 291 290 288 287 287 288 288 288 287 288 289 290 290 291 292 294 295 296 296 294 293 290 288 286 283 281 283 281 279 278 277 276 275 271 268
301 300 298 297 295 294 293 292 290 288 286 286 286 287 288 289 290 290 291 294 296 298 298 298 299 296 293 291 289 288 286 286 285 282 280 277 279 278 277 278 281 279 277
301 299 297 296 295 293 291 290 289 288 287 288 290 293 295 297 298 298 299 301 301 302 302 300 298 296 296 294 292 290 289 288 288 288 287 285 283 282 281 280 278 276 275
Height
10869 10869 10867 10868 10866 10866 10866 10866 10866 10865 10862 10860 10858 10856 10853 10852 10848 10845 10842 10837 10832 10826 10821 10815 10810 10802 10793 10785 10778 10772 10766 10761 10753 10746 10738 10732 10729 10726 10722 10721 10717 10715 10714
10858 10858 10855 10857 10856 10856 10856 10856 10854 10851 10850 10848 10847 10844 10842 10839 10837 10833 10829 10826 10820 10815 10810 10804 10796 10788 10781 10774 10766 10759 10751 10745 10739 10735 10728 10723 10718 10715 10714 10710 10707 10707 10707
10849 10846 10844 10846 10846 10846 10847 10844 10841 10840 10838 10836 10834 10833 10832 10829 10825 10822 10818 10813 10808 10804 10799 10790 10782 10775 10767 10759 10750 10745 10738 10733 10729 10725 10720 10716 10710 10707 10705 10703 10701 10700 10700
10835 10834 10834 10835 10836 10837 10836 10832 10829 10828 10827 10826 10824 10822 10820 10817 10812 10809 10804 10799 10793 10789 10783 10777 10769 10760 10752 10745 10738 10732 10726 10722 10718 10715 10710 10707 10704 10700 10698 10695 10694 10694 10693
10822 10825 10825 10825 10828 10825 10823 10820 10818 10817 10816 10814 10813 10811 10807 10803 10799 10795 10791 10785 10780 10775 10768 10762 10755 10747 10740 10734 10726 10721 10716 10712 10709 10704 10701 10697 10696 10692 10689 10688 10686 10687 10685
10813 10815 10816 10815 10814 10813 10812 10810 10809 10808 10805 10803 10801 10797 10792 10788 10784 10779 10774 10769 10765 10760 10755 10748 10742 10735 10730 10724 10718 10712 10707 10703 10700 10697 10694 10691 10688 10686 10682 10681 10680 10679 10678
10804 10804 10803 10804 10803 10803 10802 10801 10800 10797 10795 10792 10787 10783 10779 10773 10768 10763 10758 10754 10750 10744 10739 10733 10727 10722 10716 10711 10707 10702 10699 10695 10692 10689 10687 10684 10681 10679 10676 10675 10674 10672 10671
10792 10793 10792 10792 10793 10793 10793 10790 10788 10785 10781 10777 10772 10768 10763 10758 10754 10749 10744 10739 10734 10729 10724 10719 10712 10708 10703 10699 10697 10693 10690 10687 10684 10681 10680 10677 10674 10673 10671 10668 10667 10667 10665
10784 10784 10784 10784 10783 10784 10779 10779 10775 10772 10767 10764 10759 10753 10749 10744 10738 10734 10728 10725 10721 10716 10711 10705 10701 10697 10693 10689 10685 10683 10681 10678 10676 10674 10672 10669 10667 10665 10664 10663 10661 10660 10660
10778 10777 10776 10775 10773 10775 10771 10767 10762 10760 10756 10750 10746 10741 10734 10728 10724 10719 10713 10708 10707 10702 10698 10694 10689 10686 10683 10679 10676 10672 10670 10669 10667 10664 10663 10661 10659 10657 10656 10656 10655 10653 10652
10767 10768 10768 10766 10766 10764 10761 10756 10751 10748 10744 10738 10733 10728 10722 10716 10710 10705 10699 10695 10693 10690 10685 10681 10677 10674 10671 10669 10667 10664 10660 10658 10655 10654 10653 10653 10651 10648 10646 10646 10646 10645 10644
10758 10759 10759 10758 10756 10754 10750 10746 10742 10737 10732 10727 10721 10713 10706 10701 10694 10690 10686 10684 10679 10676 10672 10668 10666 10663 10660 10657 10655 10653 10651 10648 10645 10643 10642 10642 10641 10640 10637 10635 10635 10635 10634
10750 10750 10750 10745 10745 10744 10740 10736 10731 10725 10719 10713 10706 10697 10691 10685 10679 10676 10674 10671 10667 10663 10659 10655 10653 10650 10647 10645 10643 10641 10639 10637 10634 10631 10631 10630 10628 10627 10626 10624 10623 10623 10623
10740 10739 10739 10736 10734 10732 10729 10724 10714 10712 10706 10699 10690 10680 10676 10672 10665 10660 10660 10657 10653 10650 10648 10644 10641 10638 10634 10631 10628 10625 10623 10621 10619 10617 10618 10616 10615 10613 10613 10612 10610 10610 10610
10730 10729 10728 10725 10724 10719 10716 10711 10705 10701 10691 10683 10674 10667 10663 10657 10654 10651 10647 10644 10641 10638 10635 10631 10625 10621 10619 10616 10612 10610 10608 10606 10604 10601 10600 10600 10600 10598 10597 10597 10597 10597 10595
10721 10719 10716 10714 10711 10706 10703 10698 10693 10687 10678 10670 10662 10656 10651 10645 10641 10635 10632 10627 10623 10621 10617 10611 10607 10606 10603 10600 10596 10593 10590 10588 10586 10584 10582 10584 10581 10582 10581 10581 10580 10580 10581
10708 10706 10705 10702 10696 10693 10690 10687 10682 10670 10663 10658 10649 10645 10639 10632 10627 10621 10618 10614 10608 10605 10602 10601 10596 10592 10587 10583 10579 10576 10572 10569 10567 10566 10563 10560 10563 10560 10561 10562 10563 10563 10563
10699 10695 10691 10690 10683 10681 10679 10673 10666 10658 10653 10650 10642 10635 10629 10623 10617 10611 10607 10602 10596 10596 10590 10585 10581 10576 10571 10566 10561 10557 10553 10550 10550 10545 10544 10541 10540 10538 10539 10539 10540 10542 10544
10687 10683 10680 10678 10672 10667 10667 10660 10658 10651 10640 10637 10634 10627 10620 10615 10609 10604 10599 10594 10587 10582 10576 10569 10563 10558 10551 10546 10540 10537 10533 10528 10527 10524 10522 10520 10518 10516 10515 10518 10515 10516 10517
10674 10671 10668 10665 10663 10660 10659 10652 10649 10640 10633 10630 10623 10617 10612 10605 10598 10591 10585 10579 10573 10566 10560 10551 10545 10537 10531 10526 10518 10515 10510 10505 10501 10499 10497 10493 10493 10491 10489 10490 10491 10490 10491
10661 10659 10656 10654 10652 10647 10646 10641 10636 10629 10624 10620 10614 10606 10599 10590 10583 10577 10570 10564 10557 10551 10540 10534 10526 10519 10511 10507 10502 10496 10490 10486 10482 10478 10471 10469 10465 10463 10460 10460 10458 10457 10458
10649 10646 10644 10642 10639 10636 10632 10629 10625 10620 10615 10609 10601 10593 10585 10579 10572 10564 10556 10550 10543 10534 10526 10516 10507 10499 10492 10488 10482 10473 10468 10459 10453 10455 10443 10433 10431 10426 10424 10423 10425 10426 10426
10637 10634 10631 10628 10625 10622 10620 10617 10612 10607 10601 10593 10586 10579 10571 10563 10557 10548 10540 10531 10523 10514 10505 10497 10488 10478 10471 10460 10454 10446 10437 10426 10418 10409 10405 10401 10392 10387 10381 10378 10379 10382 10382
10631 10627 10624 10620 10616 10612 10608 10603 10597 10591 10585 10577 10570 10563 10556 10547 10539 10531 10523 10515 10507 10498 10488 10477 10467 10455 10445 10434 10422 10413 10403 10393 10380 10378 10364 10355 10347 10334 10328 10325 10327 10329 10333
10623 10620 10616 10612 10607 10602 10596 10590 10583 10576 10569 10563 10556 10549 10542 10533 10524 10516 10507 10498 10488 10478 10467 10455 10442 10430 10417 10406 10392 10381 10369 10357 10341 10329 10323 10313 10301 10288 10282 10275 10272 10274 10278
10615 10611 10606 10601 10596 10589 10582 10575 10568 10561 10553 10547 10540 10532 10525 10517 10507 10500 10489 10479 10467 10455 10442 10429 10415 10401 10388 10373 10356 10342 10330 10317 10303 10286 10274 10265 10262 10247 10236 10232 10233 10233 10232